Location: Caltech
(34.1382°N, 118.1253°W)
Time: 00:27:22
(UTC-07:00)

Iridium 18 - Visible Passes

Search period start: 24 April 2017 00:00
Search period end: 04 May 2017 00:00
Orbit: 776 x 779 km, 86.4° (Epoch: 22 April)

Date Brightness Start Highest point End Pass type
(mag) Time Alt. Az. Time Alt. Az. Time Alt. Az.
24 Apr 8.2 01:32:36 10° N 01:33:25 15° N 01:33:25 15° N visible
25 Apr 8.2 00:59:10 10° N 01:00:00 15° N 01:00:00 15° N visible
26 Apr 8.3 00:26:11 10° NNE 00:26:35 12° NNE 00:26:35 12° NNE visible
26 Apr 8.3 02:06:56 10° NNW 02:07:03 11° NNW 02:07:03 11° NNW visible
27 Apr 8.1 01:32:48 10° NNW 01:33:39 15° NNW 01:33:39 15° NNW visible
28 Apr 8.1 00:59:09 10° N 01:00:14 17° N 01:00:14 17° N visible
29 Apr 8.1 00:25:52 10° NNE 00:26:51 15° NNE 00:26:51 15° NNE visible
29 Apr 8.2 23:53:06 10° NNE 23:53:27 11° NNE 23:53:27 11° NNE visible
30 Apr 8.1 01:33:10 10° NNW 01:33:55 14° NNW 01:33:55 14° NNW visible
01 May 8.0 00:59:15 10° N 01:00:32 18° N 01:00:32 18° N visible
02 May 7.9 00:25:44 10° N 00:27:09 19° N 00:27:09 19° N visible
02 May 8.0 23:52:38 10° NNE 23:53:46 16° NNE 23:53:46 16° NNE visible
03 May 8.2 01:33:44 10° NNW 01:34:14 12° NW 01:34:14 12° NW visible
03 May 8.2 23:20:12 10° NE 23:20:23 11° NE 23:20:23 11° NE visible
